Location: Huberhof
(49.2050°N, 7.4980°E)
Time: 03:58:41
(UTC+00:00)

CSL-04 Debris - Pass Details

Date: 29 October 2020
Orbit: 827 x 848 km, 98.9° (Epoch: 25 November)

Event Time Altitude Azimuth Distance (km) Brightness Sun altitude
Rises 17:36:57 0° 143° (SE) 3,378 7.0 -14.2°
Reaches altitude 10° 17:39:23 10° 137° (SE) 2,451 6.3 -14.5°
Maximum altitude 17:44:32 46° 66° (ENE) 1,127 4.4 -15.4°
Drops below altitude 10° 17:49:44 10° 355° (N) 2,478 6.7 -16.2°
Sets 17:52:12 0° 350° (N) 3,420 7.5 -16.6°
